Regional Weather Roundup
Issued by NWS Upton, NY

Current Version | Previous Version | Text Only | Print | Product List | Glossary On
Versions: 1 2 3 4 5 6 7 8 9 10 11 12 13 14 15 16 17 18 19 20 21 22 23 24 25 26 27
000
ASUS41 KOKX 251409
RWROKX

REGIONAL WEATHER ROUNDUP
NATIONAL WEATHER SERVICE NEW YORK NY
1000 AM EDT TUE JUL 25 2017

NOTE: "FAIR" INDICATES FEW OR NO CLOUDS BELOW 12,000 FEET WITH NO
SIGNIFICANT WEATHER AND/OR OBSTRUCTIONS TO VISIBILITY.

NYZ071-072-176-178-NJZ106-104-251500-
NEW YORK CITY METRO AREA

CITY           SKY/WX    TMP DP  RH WIND       PRES   REMARKS
Central Park   CLOUDY    65  59  81 VRB5      30.10R
Bronx Bot Gard   N/A     63  57  82 NE5       30.08R
LaGuardia APRT CLOUDY    67  61  81 NE13      30.06R
Kennedy INTL   CLOUDY    67  61  81 NE6       30.07R
Breezy Point     N/A     64 N/A N/A NE5         N/A
Newark/Liberty CLOUDY    66  61  84 N7        30.06R
Teterboro      CLOUDY    65  59  81 VRB3      30.06R
$$

NYZ177-179-078>081-251500-
LONG ISLAND NEW YORK

CITY           SKY/WX    TMP DP  RH WIND       PRES   REMARKS
Jones Beach      N/A     64 N/A N/A NE5         N/A
Matinecock PT    N/A     63 N/A N/A E16         N/A
Farmingdale    CLOUDY    66  58  75 NE9       30.06R
MacArthur/ISP  CLOUDY    65  59  81 NE9       30.06R
Shirley        CLOUDY    65  59  81 VRB5      30.07R
Mt Sinai Harb    N/A    N/A N/A N/A NE6G12      N/A
Westhampton    CLOUDY    64  57  78 NE9       30.08S
East Hampton   CLOUDY    62  56  82 E6        30.07R
Montauk          N/A     64  58  80 NE7       30.08S
$$

NYZ052-065-067-251500-
HUDSON VALLEY

CITY           SKY/WX    TMP DP  RH WIND       PRES   REMARKS
White Plains   PTSUNNY   62  56  80 NE6       30.08R
Larchmont Harb   N/A     61 N/A N/A N12         N/A
Croton O-T Hud   N/A     63 N/A N/A NE1         N/A
Newburgh       CLOUDY    61  59  94 CALM      30.09S
Montgomery     CLOUDY    63  58  83 CALM      30.08R
Poughkeepsie   CLOUDY    62  55  77 CALM      30.07S
Albany         LGT RAIN  59  56  89 CALM      30.10R FOG
$$

NJZ001-105-106-008-010-013-015-019>022-104-251500-
NEW JERSEY

CITY           SKY/WX    TMP DP  RH WIND       PRES   REMARKS
Newark/Liberty CLOUDY    66  61  84 N7        30.06R
Teterboro      CLOUDY    65  59  81 VRB3      30.06R
Caldwell       CLOUDY    63  60  90 VRB5      30.08R
Somerville     CLOUDY    66  62  87 CALM      30.05R
Linden         CLOUDY    64  60  88 CALM      30.06S
Perth Amboy      N/A     64 N/A N/A NE3         N/A
Sussex         CLOUDY    63  60  90 N5        30.08R
Andover          N/A     66  61  84 CALM      30.07S
Trenton        CLOUDY    66  63  90 E5        30.06R
Millville      MOSUNNY   73  68  84 N10       30.03S
Atlantic City  CLOUDY    71  68  90 N8        30.04R
Wrightstown    CLOUDY    66  64  94 E7        30.03R
Toms River     CLOUDY    68  65  90 NE8       30.05R
Belmar         CLOUDY    65  63  93 N7        30.07R
$$

PAZ047>061-062-071-251500-
EASTERN PENNSYLVANIA

CITY           SKY/WX    TMP DP  RH WIND       PRES   REMARKS
Philadelphia   CLOUDY    70  63  78 E3        30.06R
Allentown      CLOUDY    71  62  73 N3        30.06R
Scranton       LGT RAIN  65  62  90 VRB5      30.08R
$$

CTZ002-004>006-009-010-012-RIZ004-006-007-MAZ004-011-015-251500-
SOUTHERN NEW ENGLAND
 IN CT

CITY           SKY/WX    TMP DP  RH WIND       PRES   REMARKS
Bradley INTL   CLOUDY    60  56  86 N6        30.11R
Hartford       CLOUDY    61  55  81 NW6       30.09S
Danbury        CLOUDY    59  56  89 NE7       30.10R
Wtrbury/Oxford CLOUDY    57  52  82 NE5       30.10R
Bridgeport     LGT RAIN  62  55  77 NE12      30.08R
Meriden        CLOUDY    60  55  83 NE7       30.09S
New Haven      CLOUDY    62  55  77 NE9       30.08S
Chester        CLOUDY    59  55  88 NE6       30.09S
Groton         CLOUDY    62  56  80 N10       30.08R
Wilimantic     CLOUDY    61  56  83 NE8       30.10R

 IN RI

CITY           SKY/WX    TMP DP  RH WIND       PRES   REMARKS
Providence     CLOUDY    60  57  89 N10       30.09S
Block Island   CLOUDY    62  57  83 NE12      30.08R
Westerly       CLOUDY    62  57  83 N7        30.08S
 IN MA

CITY           SKY/WX    TMP DP  RH WIND       PRES   REMARKS
Boston         CLOUDY    59  56  89 N10       30.10R
Worcester      CLOUDY    54  52  93 NE6       30.11R
Westfield      CLOUDY    59  56  89 NE6       30.11R
Provincetown   CLOUDY    60  56  86 NE13      30.08R
Nantucket      CLOUDY    62  59  90 N17       30.05R
$$

ANZ330-335-338-340-345-350-353-355-251500-
COASTAL MARINE OBSERVATIONS


STATION/POSITION TIME  SKY/WX   TEMP    WIND        PRES    VSBY  WAVE
                                AIR SEA DIR/SP/G                  HT/PER
                 (UTC)          (F)     (DEG/KT/KT) (MB)    (MI)  (FT/S)
NY HARB ENTRANCE 1250            66 71   60/ 14/ 16 1016.6          4/ 7
20 S FIRE ISLAND 1350            67 73   50/ 12/ 16 1016.7          5/ 7
GREAT SOUTH BAY  1300            64 76   30/ 10/ 12   N/A
23 SSW MONTAUK P 1250            63 72              1017.6          5/ 7
15 E BARNEGAT LI 1330               71                N/A           5/ 6
HUDSON CANYON    1250            68 74   70/ 14/ 16 1015.3          4/ 7
KINGS POINT      1336            64 71   60/  5/ 10 1017.9
EXECUTION ROCKS  1345            65      70/ 12/ 16   N/A
CENTRAL LI SOUND NOT AVBL
EASTERN LI SOUND NOT AVBL
ROBBINS REEF     1336                    20/  2/  4 1018.4
$$


>>>>>>>>>>>>>>>>>>>>>>>>>>>> KEY <<<<<<<<<<<<<<<<<<<<<<<<<<<
>                                                          <
>     SKY/WX - Sky Condition/Present Weather               <
>     TMP    - Temperature in Fahrenheit                   <
>     DP     - Dew Point in Fahrenheit                     <
>     RH     - Relative Humidity in Percent                <
>     WIND   - Direction (from) and Speed in MPH           <
>     PRES   - Mean Sea Level Pressure (inches of Hg)      <
>     WCI    - Wind Chill Index                            <
>     VSB    - VISIBILITY IN MILES                         <
>     HX     - HEAT INDEX                                  <
>     TC     - TEMPERATURE IN CELSIUS                      <
>     VRB    - VARIABLE WIND DIRECTION                     <
>                                                          <
>>>>>>>>>>>>>>>>>>>>>>>>>>>> KEY <<<<<<<<<<<<<<<<<<<<<<<<<<<




USA.gov is the U.S. government's official web portal to all federal, state and local government web resources and services.